SL-14 DEB, 45294

Orbit data source: Space-Track

SL-14 DEB, 45294 is space debris in LEO originally from a launch on Thu, 15 Aug 1991 UTC launched from the Plesetsk Missile And Space Complex (PKMTR). Debris objects in space refer to the collection of defunct objects orbiting the Earth. Examples of debris include non-operational satellites, rocket bodies, and fragments generated from explosions, collisions, or faulty payload assembly.

Loading next visibility...
Identifier
45294, 1991-056AG
Orbit
LEO
Last TLE update
7 hours ago
Origin
Manufacturer
Unknown
Mission
Spacecraft
Bus & Motor
Unknown
Mass
Unknown
Launch date (UTC)
1991-08-15 (34 years ago)
Launch vehicle
Unknown
Launch site
Plesetsk Missile And Space Complex (PKMTR)
Object type
Payload
Rocket body
Debris
Shape & HBR
Unknown
Radar Cross Section
Small (<0.1 m²)

Expand to show TLE details & history

TLE from 7 hours ago
0 SL-14 DEB
1 45294U 91056AG  25163.38474634  .00000798  00000-0  19292-2 0  9990
2 45294  82.5678  38.9317 0014034 332.5403  27.4978 13.20857217254931
Epoch: 2025-06-12T09:14Z
TLE epoch observation values (Epoch: 2025-06-12T09:14:02.083Z)
Latitude
-0.00009°
Longitude
-0.53066°
Altitude
1,174.852 km
Speed
7.271 km/s
True Right ascension
02h 35m 43s
True Declination
0° 00' 00"
Sunlit
Object was in daylight at epoch
Visualization orbit readout
Latitude
-65.25754°
Longitude
-17.09343°
Altitude
1,197.9 km
Speed
7.258 km/s
Apparent Right ascension
16h 18m 00s
Apparent Declination
-79° 21' 32"
Sunlit
Object is in daylight
Visualization observer readout
Local Sidereal Time
02:34:48
Azimuth
187.08° SSW
Elevation
-49.301°
Doppler factor
1
Orbital elements
Apogee altitude
1,189.291 km
Perigee altitude
1,168.081 km
Semi-major axis
7,556.823 km
Eccentricity
0.0014
Inclination
82.5678°
RAAN
38.9317°
Arg. of periapsis
332.5403°
True anomaly
Unknown
Mean anomaly
27.4978°
Eccentric anomaly
Unknown
Mean motion
3.30396 °/min
Orbital period
108.96 mins
BSTAR
0.0019292
Loading maneuver chart data...
Loading SW <> Apogee altitude chart data...
Loading historical data...
Loading historical data...
Loading historical data...
Loading historical data...
Loading historical data...
Loading historical data...
Loading historical data...

SL-14 DEB Visibility forecast

Observer location: undefined°, undefined°

Span
Click to sort rows by Start time (UTC) header in descending order
Start Az.
Max El. time (UTC)
Max El. Az.
Max El.
End time (UTC)
End Az.
13 mins2025-06-12 16:36:19.198Z190.381° SSW2025-06-12 16:42:19.198Z247.959° W44.556°2025-06-12 16:49:19.198Z5.439° NNE
4 mins2025-06-12 18:32:19.198Z285.751° WNW2025-06-12 18:33:19.198Z294.614° NW13.086°2025-06-12 18:36:19.198Z320.496° NNW
10 mins2025-06-13 02:12:19.198Z24.451° NE2025-06-13 02:17:19.198Z74.796° E21.939°2025-06-13 02:22:19.198Z119.521° SE
13 mins2025-06-13 04:01:19.198Z343.224° N2025-06-13 04:07:19.198Z263.95° W41.3°2025-06-13 04:14:19.198Z189.627° SSW
|